CPA28 YSSY-YMML

Flight info

Callsign CPA28
Flight time 1h 4m
Altitude 32000
Route WOL H65 LEECE Q29 ML
Aircraft B77W/H-SDE1E2E3FGHIJ2J3J4J5M1RWXY/LB1D1

Departure

Time 2026-05-05 20:29
Airport Sydney Kingsford Smith International Airport (YSSY)

Arrival

Time 2026-05-05 21:33
Airport Melbourne Airport (YMML)
Time Latitude Longitude Altitude Speed Heading
2026-05-05 20:11 -33.93887 151.16653 35 ft 0 kts 254°
2026-05-05 20:15 -33.93886 151.16660 35 ft 1 kts 254°
2026-05-05 20:16 -33.93883 151.16670 33 ft 1 kts 254°
2026-05-05 20:16 -33.93881 151.16680 35 ft 1 kts 254°
2026-05-05 20:16 -33.93879 151.16690 35 ft 1 kts 254°
2026-05-05 20:16 -33.93876 151.16700 35 ft 2 kts 254°
2026-05-05 20:17 -33.93871 151.16720 33 ft 2 kts 249°
2026-05-05 20:17 -33.93862 151.16742 33 ft 3 kts 220°
2026-05-05 20:17 -33.93843 151.16751 33 ft 3 kts 161°
2026-05-05 20:17 -33.93840 151.16750 33 ft 0 kts 161°
2026-05-05 20:18 -33.93845 151.16751 33 ft 3 kts 164°
2026-05-05 20:18 -33.93882 151.16759 31 ft 8 kts 168°
2026-05-05 20:19 -33.93914 151.16770 35 ft 0 kts 165°
2026-05-05 20:19 -33.93919 151.16771 35 ft 1 kts 165°
2026-05-05 20:19 -33.93928 151.16774 35 ft 2 kts 165°
2026-05-05 20:19 -33.93943 151.16779 35 ft 3 kts 165°
2026-05-05 20:20 -33.93962 151.16785 35 ft 3 kts 165°
2026-05-05 20:20 -33.93988 151.16794 35 ft 5 kts 164°
2026-05-05 20:20 -33.94038 151.16811 35 ft 11 kts 166°
2026-05-05 20:20 -33.94128 151.16855 33 ft 15 kts 128°
2026-05-05 20:21 -33.94120 151.16980 34 ft 15 kts 75°
2026-05-05 20:21 -33.94091 151.17105 34 ft 15 kts 74°
2026-05-05 20:21 -33.94080 151.17230 34 ft 15 kts 118°
2026-05-05 20:21 -33.94179 151.17278 33 ft 16 kts 167°
2026-05-05 20:22 -33.94288 151.17307 35 ft 16 kts 168°
2026-05-05 20:22 -33.94396 151.17335 35 ft 16 kts 168°
2026-05-05 20:22 -33.94504 151.17363 35 ft 16 kts 168°
2026-05-05 20:22 -33.94604 151.17413 35 ft 16 kts 173°
2026-05-05 20:23 -33.94714 151.17415 35 ft 16 kts 167°
2026-05-05 20:23 -33.94821 151.17446 35 ft 16 kts 168°
2026-05-05 20:23 -33.94929 151.17474 34 ft 16 kts 168°
2026-05-05 20:23 -33.95038 151.17501 34 ft 16 kts 167°
2026-05-05 20:24 -33.95146 151.17529 34 ft 16 kts 168°
2026-05-05 20:24 -33.95254 151.17557 34 ft 16 kts 168°
2026-05-05 20:24 -33.95363 151.17586 34 ft 16 kts 167°
2026-05-05 20:24 -33.95471 151.17615 34 ft 16 kts 168°
2026-05-05 20:25 -33.95579 151.17642 35 ft 16 kts 168°
2026-05-05 20:25 -33.95688 151.17670 35 ft 16 kts 168°
2026-05-05 20:25 -33.95796 151.17698 35 ft 16 kts 168°
2026-05-05 20:25 -33.95904 151.17726 35 ft 16 kts 167°
2026-05-05 20:26 -33.96012 151.17755 34 ft 16 kts 168°
2026-05-05 20:26 -33.96121 151.17783 35 ft 16 kts 168°
2026-05-05 20:26 -33.96229 151.17811 35 ft 16 kts 168°
2026-05-05 20:26 -33.96337 151.17838 35 ft 16 kts 168°
2026-05-05 20:27 -33.96426 151.17882 35 ft 12 kts 129°
2026-05-05 20:27 -33.96428 151.17976 35 ft 12 kts 79°
2026-05-05 20:27 -33.96410 151.18047 35 ft 7 kts 49°
2026-05-05 20:27 -33.96361 151.18047 34 ft 7 kts 348°
2026-05-05 20:28 -33.96308 151.18033 34 ft 13 kts 348°
2026-05-05 20:28 -33.96077 151.17974 32 ft 65 kts 348°
2026-05-05 20:28 -33.95361 151.17789 34 ft 143 kts 347°
2026-05-05 20:28 -33.94224 151.17501 296 ft 176 kts 347°
2026-05-05 20:29 -33.93017 151.17196 1029 ft 187 kts 345°
2026-05-05 20:29 -33.91847 151.16479 1630 ft 194 kts 309°
2026-05-05 20:29 -33.91082 151.15087 2062 ft 214 kts 300°
2026-05-05 20:29 -33.90258 151.13441 2338 ft 246 kts 301°
2026-05-05 20:30 -33.89313 151.11621 2935 ft 261 kts 303°
2026-05-05 20:30 -33.88318 151.09744 3760 ft 270 kts 303°
2026-05-05 20:30 -33.87294 151.07834 4714 ft 273 kts 304°
2026-05-05 20:30 -33.86261 151.05916 5669 ft 276 kts 304°
2026-05-05 20:31 -33.85218 151.03972 6643 ft 277 kts 304°
2026-05-05 20:31 -33.84185 151.02030 7627 ft 274 kts 301°
2026-05-05 20:31 -33.83588 150.99871 8329 ft 278 kts 274°
2026-05-05 20:31 -33.83929 150.97593 9126 ft 284 kts 244°
2026-05-05 20:32 -33.85148 150.95735 10007 ft 287 kts 218°
2026-05-05 20:32 -33.86950 150.94632 10611 ft 302 kts 195°
2026-05-05 20:32 -33.89134 150.94432 10829 ft 332 kts 175°
2026-05-05 20:32 -33.91493 150.95051 11044 ft 361 kts 164°
2026-05-05 20:33 -33.93946 150.95966 11624 ft 375 kts 163°
2026-05-05 20:33 -33.96475 150.96883 12473 ft 383 kts 165°
2026-05-05 20:33 -33.98932 150.97443 13233 ft 385 kts 181°
2026-05-05 20:33 -34.01227 150.96988 14040 ft 384 kts 199°
2026-05-05 20:34 -34.03769 150.96016 14817 ft 391 kts 198°
2026-05-05 20:34 -34.06376 150.95124 15739 ft 396 kts 197°
2026-05-05 20:34 -34.09048 150.94260 16741 ft 400 kts 197°
2026-05-05 20:34 -34.11753 150.93398 17707 ft 404 kts 197°
2026-05-05 20:35 -34.14414 150.92548 18592 ft 410 kts 197°
2026-05-05 20:35 -34.17174 150.91663 19368 ft 415 kts 197°
2026-05-05 20:35 -34.19983 150.90757 20167 ft 420 kts 197°
2026-05-05 20:35 -34.22793 150.89848 20947 ft 425 kts 198°
2026-05-05 20:36 -34.25583 150.88943 21685 ft 430 kts 198°
2026-05-05 20:36 -34.28409 150.88025 22447 ft 435 kts 198°
2026-05-05 20:36 -34.31215 150.87113 23160 ft 439 kts 198°
2026-05-05 20:36 -34.34129 150.86166 23874 ft 444 kts 198°
2026-05-05 20:37 -34.37129 150.85189 24481 ft 449 kts 198°
2026-05-05 20:37 -34.40121 150.84216 25087 ft 453 kts 198°
2026-05-05 20:37 -34.43219 150.83207 25714 ft 456 kts 198°
2026-05-05 20:37 -34.46253 150.82218 26292 ft 460 kts 198°
2026-05-05 20:38 -34.49281 150.81230 26863 ft 464 kts 198°
2026-05-05 20:38 -34.52409 150.80200 27421 ft 464 kts 199°
2026-05-05 20:38 -34.55365 150.78646 27760 ft 466 kts 215°
2026-05-05 20:38 -34.57805 150.76098 28217 ft 464 kts 232°
2026-05-05 20:39 -34.59658 150.72922 28715 ft 462 kts 238°
2026-05-05 20:39 -34.61499 150.69695 29124 ft 467 kts 236°
2026-05-05 20:39 -34.63398 150.66472 29597 ft 471 kts 236°
2026-05-05 20:39 -34.65316 150.63271 30082 ft 473 kts 236°
2026-05-05 20:40 -34.67262 150.60041 30550 ft 474 kts 236°
2026-05-05 20:40 -34.69213 150.56805 31046 ft 473 kts 236°
2026-05-05 20:40 -34.71157 150.53575 31592 ft 471 kts 236°
2026-05-05 20:40 -34.73082 150.50372 32126 ft 470 kts 236°
2026-05-05 20:41 -34.75007 150.47160 32630 ft 469 kts 236°
2026-05-05 20:41 -34.76923 150.43958 33110 ft 468 kts 236°
2026-05-05 20:41 -34.78837 150.40755 33593 ft 467 kts 236°
2026-05-05 20:41 -34.80745 150.37560 34063 ft 467 kts 236°
2026-05-05 20:42 -34.82653 150.34360 34531 ft 465 kts 236°
2026-05-05 20:42 -34.84546 150.31185 34969 ft 463 kts 236°
2026-05-05 20:42 -34.86434 150.28013 35347 ft 462 kts 236°
2026-05-05 20:42 -34.88321 150.24841 35700 ft 462 kts 237°
2026-05-05 20:43 -34.90202 150.21676 36049 ft 462 kts 237°
2026-05-05 20:43 -34.92089 150.18500 36410 ft 461 kts 237°
2026-05-05 20:43 -34.93963 150.15340 36771 ft 460 kts 237°
2026-05-05 20:43 -34.95838 150.12179 37120 ft 460 kts 237°
2026-05-05 20:44 -34.97708 150.09021 37475 ft 459 kts 237°
2026-05-05 20:44 -34.99571 150.05872 37871 ft 457 kts 238°
2026-05-05 20:44 -35.01406 150.02768 38181 ft 457 kts 238°
2026-05-05 20:45 -35.07057 149.93195 38264 ft 461 kts 238°
2026-05-05 20:45 -35.10786 149.86883 38266 ft 455 kts 238°
2026-05-05 20:46 -35.14473 149.80625 38281 ft 454 kts 238°
2026-05-05 20:46 -35.18156 149.74361 38271 ft 453 kts 238°
2026-05-05 20:47 -35.21806 149.68140 38280 ft 454 kts 238°
2026-05-05 20:47 -35.25488 149.61853 38275 ft 455 kts 238°
2026-05-05 20:48 -35.29159 149.55575 38267 ft 456 kts 238°
2026-05-05 20:48 -35.32854 149.49245 38270 ft 457 kts 238°
2026-05-05 20:49 -35.36553 149.42896 38247 ft 458 kts 238°
2026-05-05 20:49 -35.40253 149.36536 38265 ft 458 kts 238°
2026-05-05 20:50 -35.43322 149.31250 38259 ft 458 kts 238°
2026-05-05 20:50 -35.47639 149.23802 38249 ft 458 kts 238°
2026-05-05 20:51 -35.51330 149.17422 38259 ft 458 kts 238°
2026-05-05 20:51 -35.55009 149.11050 38258 ft 457 kts 238°
2026-05-05 20:52 -35.58681 149.04679 38281 ft 457 kts 238°
2026-05-05 20:52 -35.62346 148.98309 38275 ft 456 kts 238°
2026-05-05 20:53 -35.65995 148.91953 38269 ft 455 kts 238°
2026-05-05 20:53 -35.69581 148.85697 38278 ft 454 kts 238°
2026-05-05 20:54 -35.73245 148.79291 38275 ft 455 kts 238°
2026-05-05 20:54 -35.76855 148.72970 38275 ft 454 kts 238°
2026-05-05 20:55 -35.80485 148.66602 38270 ft 454 kts 238°
2026-05-05 20:55 -35.84109 148.60231 38269 ft 454 kts 238°
2026-05-05 20:56 -35.87729 148.53859 38270 ft 454 kts 238°
2026-05-05 20:56 -35.91332 148.47478 38257 ft 453 kts 239°
2026-05-05 20:57 -35.94316 148.42167 38262 ft 453 kts 239°
2026-05-05 20:57 -35.97901 148.35776 38256 ft 452 kts 239°
2026-05-05 20:58 -36.01478 148.29392 38261 ft 452 kts 239°
2026-05-05 20:58 -36.05050 148.23005 38255 ft 451 kts 239°
2026-05-05 20:59 -36.08616 148.16617 38254 ft 452 kts 239°
2026-05-05 20:59 -36.12154 148.10269 38249 ft 451 kts 239°
2026-05-05 21:00 -36.15718 148.03889 38255 ft 451 kts 239°
2026-05-05 21:00 -36.19282 147.97506 38256 ft 450 kts 239°
2026-05-05 21:01 -36.22838 147.91121 38262 ft 450 kts 239°
2026-05-05 21:01 -36.26383 147.84743 38275 ft 450 kts 239°
2026-05-05 21:02 -36.29929 147.78349 38268 ft 450 kts 239°
2026-05-05 21:02 -36.33472 147.71952 38263 ft 449 kts 239°
2026-05-05 21:03 -36.37003 147.65552 38263 ft 449 kts 239°
2026-05-05 21:03 -36.40526 147.59151 38285 ft 449 kts 239°
2026-05-05 21:04 -36.44052 147.52733 38269 ft 450 kts 239°
2026-05-05 21:04 -36.47575 147.46306 38266 ft 450 kts 239°
2026-05-05 21:05 -36.51100 147.39868 38256 ft 450 kts 239°
2026-05-05 21:05 -36.54618 147.33430 38274 ft 450 kts 239°
2026-05-05 21:06 -36.58135 147.26978 38264 ft 450 kts 239°
2026-05-05 21:06 -36.61646 147.20527 38264 ft 450 kts 239°
2026-05-05 21:07 -36.65117 147.14136 38264 ft 450 kts 239°
2026-05-05 21:07 -36.68623 147.07671 38261 ft 451 kts 240°
2026-05-05 21:08 -36.72132 147.01190 38259 ft 451 kts 240°
2026-05-05 21:08 -36.75648 146.94694 37892 ft 457 kts 240°
2026-05-05 21:09 -36.77437 146.91381 37208 ft 460 kts 239°
2026-05-05 21:09 -36.79220 146.88081 36511 ft 458 kts 239°
2026-05-05 21:09 -36.80999 146.84787 35803 ft 457 kts 239°
2026-05-05 21:09 -36.82774 146.81495 35003 ft 457 kts 239°
2026-05-05 21:10 -36.84546 146.78203 34389 ft 454 kts 239°
2026-05-05 21:10 -36.86283 146.74975 33768 ft 450 kts 239°
2026-05-05 21:10 -36.88019 146.71747 33182 ft 446 kts 239°
2026-05-05 21:10 -36.89739 146.68545 32639 ft 441 kts 239°
2026-05-05 21:11 -36.91442 146.65369 32108 ft 437 kts 239°
2026-05-05 21:11 -36.93127 146.62223 31591 ft 434 kts 239°
2026-05-05 21:11 -36.94798 146.59100 31084 ft 430 kts 239°
2026-05-05 21:11 -36.96455 146.56000 30567 ft 427 kts 239°
2026-05-05 21:12 -36.98100 146.52922 30026 ft 425 kts 239°
2026-05-05 21:12 -36.99735 146.49859 29439 ft 422 kts 239°
2026-05-05 21:12 -37.01355 146.46821 28932 ft 417 kts 239°
2026-05-05 21:12 -37.02936 146.43852 28417 ft 414 kts 239°
2026-05-05 21:13 -37.04527 146.40861 27901 ft 411 kts 239°
2026-05-05 21:13 -37.06124 146.37860 27399 ft 408 kts 239°
2026-05-05 21:13 -37.07692 146.34909 26897 ft 406 kts 239°
2026-05-05 21:13 -37.09250 146.31973 26402 ft 403 kts 240°
2026-05-05 21:14 -37.10797 146.29053 25902 ft 401 kts 240°
2026-05-05 21:14 -37.12336 146.26143 25421 ft 399 kts 240°
2026-05-05 21:14 -37.13867 146.23244 24942 ft 398 kts 240°
2026-05-05 21:14 -37.15388 146.20362 24450 ft 397 kts 240°
2026-05-05 21:15 -37.16907 146.17481 23971 ft 396 kts 240°
2026-05-05 21:15 -37.18423 146.14604 23425 ft 395 kts 240°
2026-05-05 21:15 -37.19933 146.11736 22902 ft 393 kts 240°
2026-05-05 21:15 -37.21434 146.08882 22412 ft 391 kts 240°
2026-05-05 21:16 -37.22925 146.06045 21925 ft 388 kts 240°
2026-05-05 21:16 -37.24385 146.03267 21472 ft 385 kts 240°
2026-05-05 21:16 -37.25853 146.00468 20994 ft 383 kts 240°
2026-05-05 21:16 -37.27312 145.97686 20528 ft 380 kts 240°
2026-05-05 21:17 -37.28759 145.94924 20071 ft 378 kts 240°
2026-05-05 21:17 -37.30199 145.92173 19612 ft 376 kts 240°
2026-05-05 21:17 -37.31632 145.89440 19163 ft 373 kts 240°
2026-05-05 21:17 -37.33063 145.86723 18703 ft 372 kts 239°
2026-05-05 21:18 -37.34491 145.84015 18193 ft 371 kts 239°
2026-05-05 21:18 -37.35910 145.81323 17688 ft 369 kts 239°
2026-05-05 21:18 -37.37307 145.78668 17234 ft 367 kts 239°
2026-05-05 21:18 -37.38709 145.76000 16753 ft 365 kts 240°
2026-05-05 21:19 -37.40118 145.73315 16277 ft 362 kts 240°
2026-05-05 21:19 -37.41502 145.70675 15824 ft 360 kts 240°
2026-05-05 21:19 -37.42877 145.68052 15366 ft 358 kts 240°
2026-05-05 21:19 -37.44229 145.65471 14906 ft 357 kts 240°
2026-05-05 21:20 -37.45597 145.62874 14461 ft 355 kts 238°
2026-05-05 21:20 -37.47033 145.60351 13994 ft 354 kts 237°
2026-05-05 21:20 -37.48498 145.57865 13503 ft 353 kts 236°
2026-05-05 21:20 -37.49959 145.55389 13032 ft 351 kts 236°
2026-05-05 21:21 -37.51402 145.52926 12567 ft 349 kts 237°
2026-05-05 21:21 -37.52833 145.50464 12103 ft 346 kts 237°
2026-05-05 21:21 -37.54246 145.48020 11663 ft 344 kts 237°
2026-05-05 21:21 -37.55647 145.45593 11230 ft 341 kts 237°
2026-05-05 21:22 -37.57037 145.43191 10908 ft 335 kts 237°
2026-05-05 21:22 -37.58392 145.40855 10653 ft 328 kts 237°
2026-05-05 21:22 -37.59723 145.38558 10436 ft 320 kts 237°
2026-05-05 21:22 -37.61013 145.36329 10273 ft 310 kts 237°
2026-05-05 21:23 -37.62261 145.34170 10133 ft 300 kts 237°
2026-05-05 21:23 -37.63470 145.32077 9987 ft 291 kts 237°
2026-05-05 21:23 -37.64648 145.30031 9748 ft 284 kts 237°
2026-05-05 21:23 -37.65808 145.28019 9384 ft 283 kts 237°
2026-05-05 21:24 -37.66963 145.26013 9042 ft 282 kts 237°
2026-05-05 21:24 -37.68112 145.24017 8702 ft 281 kts 237°
2026-05-05 21:24 -37.69255 145.22031 8368 ft 280 kts 237°
2026-05-05 21:24 -37.70374 145.20086 8036 ft 279 kts 237°
2026-05-05 21:25 -37.71506 145.18118 7711 ft 277 kts 237°
2026-05-05 21:25 -37.72634 145.16156 7404 ft 275 kts 237°
2026-05-05 21:25 -37.73755 145.14205 7080 ft 274 kts 237°
2026-05-05 21:25 -37.74872 145.12258 6766 ft 272 kts 237°
2026-05-05 21:26 -37.75981 145.10325 6371 ft 265 kts 236°
2026-05-05 21:26 -37.77037 145.08487 5969 ft 253 kts 236°
2026-05-05 21:26 -37.78067 145.06689 5671 ft 252 kts 236°
2026-05-05 21:26 -37.79092 145.04897 5365 ft 251 kts 236°
2026-05-05 21:27 -37.80116 145.03106 5065 ft 250 kts 236°
2026-05-05 21:27 -37.81122 145.01321 4743 ft 246 kts 240°
2026-05-05 21:27 -37.81704 144.99340 4427 ft 236 kts 260°
2026-05-05 21:27 -37.81999 144.97376 4328 ft 224 kts 259°
2026-05-05 21:28 -37.82330 144.95439 4243 ft 222 kts 258°
2026-05-05 21:28 -37.82625 144.93579 4100 ft 213 kts 261°
2026-05-05 21:28 -37.82858 144.91714 3736 ft 215 kts 262°
2026-05-05 21:28 -37.83072 144.89889 3446 ft 202 kts 266°
2026-05-05 21:29 -37.82829 144.88254 3185 ft 181 kts 300°
2026-05-05 21:29 -37.82036 144.87139 2985 ft 163 kts 320°
2026-05-05 21:29 -37.81065 144.86460 2760 ft 163 kts 343°
2026-05-05 21:29 -37.79947 144.86256 2605 ft 160 kts 348°
2026-05-05 21:30 -37.78868 144.86048 2572 ft 151 kts 347°
2026-05-05 21:30 -37.77852 144.85859 2496 ft 148 kts 348°
2026-05-05 21:30 -37.76819 144.85677 2196 ft 149 kts 348°
2026-05-05 21:30 -37.75800 144.85510 1881 ft 145 kts 348°
2026-05-05 21:31 -37.74825 144.85317 1561 ft 140 kts 348°
2026-05-05 21:31 -37.73869 144.85181 1399 ft 139 kts 350°
2026-05-05 21:31 -37.72907 144.84944 1315 ft 145 kts 347°
2026-05-05 21:31 -37.71902 144.84727 1040 ft 145 kts 351°
2026-05-05 21:32 -37.70911 144.84545 815 ft 142 kts 351°
2026-05-05 21:32 -37.69941 144.84349 652 ft 141 kts 351°
2026-05-05 21:32 -37.68968 144.84163 464 ft 141 kts 352°
2026-05-05 21:32 -37.68000 144.83989 366 ft 136 kts 352°
2026-05-05 21:33 -37.67161 144.83830 387 ft 105 kts 351°
2026-05-05 21:33 -37.66560 144.83719 408 ft 72 kts 352°
2026-05-05 21:33 -37.66137 144.83643 415 ft 53 kts 352°
2026-05-05 21:33 -37.65833 144.83586 423 ft 34 kts 351°
2026-05-05 21:34 -37.65652 144.83572 426 ft 17 kts 19°
2026-05-05 21:34 -37.65597 144.83641 424 ft 6 kts 65°
2026-05-05 21:34 -37.65586 144.83695 434 ft 7 kts 82°
2026-05-05 21:34 -37.65605 144.83751 419 ft 8 kts 146°
2026-05-05 21:35 -37.65667 144.83773 425 ft 11 kts 169°
2026-05-05 21:35 -37.65751 144.83789 416 ft 14 kts 172°
2026-05-05 21:35 -37.65851 144.83809 415 ft 15 kts 171°
2026-05-05 21:35 -37.65958 144.83829 422 ft 16 kts 172°
2026-05-05 21:36 -37.66079 144.83851 415 ft 20 kts 171°
2026-05-05 21:36 -37.66225 144.83878 408 ft 22 kts 171°
2026-05-05 21:36 -37.66376 144.83906 409 ft 22 kts 171°
2026-05-05 21:36 -37.66526 144.83934 408 ft 14 kts 172°
2026-05-05 21:37 -37.66618 144.83951 404 ft 15 kts 172°
2026-05-05 21:37 -37.66690 144.83970 400 ft 6 kts 154°
2026-05-05 21:37 -37.66707 144.83989 400 ft 2 kts 131°
2026-05-05 21:37 -37.66717 144.84016 398 ft 4 kts 108°
2026-05-05 21:38 -37.66719 144.84062 395 ft 6 kts 89°
2026-05-05 21:38 -37.66727 144.84115 397 ft 7 kts 109°
2026-05-05 21:38 -37.66760 144.84168 398 ft 9 kts 144°
2026-05-05 21:38 -37.66827 144.84198 394 ft 11 kts 168°
2026-05-05 21:39 -37.66893 144.84213 394 ft 8 kts 157°
2026-05-05 21:39 -37.66909 144.84257 394 ft 6 kts 84°
2026-05-05 21:39 -37.66903 144.84306 391 ft 6 kts 82°
2026-05-05 21:39 -37.66900 144.84334 392 ft 1 kts 82°
2026-05-05 21:40 -37.66899 144.84342 392 ft 1 kts 82°